OBJECT J (43188 NORAD) Tracking and Keplerian Element Data

This shows tracking and keplerian element data for the satellite.

Feedback or suggestion? Click here.




ElementValue
Catalog43188
NameOBJECT J
Epoch Orbit2489
Epoch Day198.77970779
Epoch Year2018
RAAN106.8623
Inclination97.7234
Eccentricity0.0012528
Argument of Perigee53.9859
Mean Anonmoly306.2522
Mean Motion14.96475546
Decay Rate-5.4E-07
L11 43188U 18014J 18198.77970779 -.00000054 00000-0 35057-6 0 9994
L22 43188 97.7234 106.8623 0012528 53.9859 306.2522 14.96475546 24895

Live tracking and technical data element details for OBJECT J (NORAD 43188). OBJECT J can be tracked NOW for your location showing map with azimuth and elevation plus other details from your city location.

Track the satellite on the map from your city or location and see movement details for azimuth, elevation, latitude, longitude, range, height, and movement on the map or in text.







IsCatalogInMostPopularTable: catalog: 43188, numindb: 71
Update: records affected: 1



GetName: 43188 OBJECT J

Hit Count: updated at: Fri, 20 Jul 2018 20:36:59 GMT